Location: Saint-Hippolyte
(43.6394°N, 4.7559°E)
Time: 15:31:47
(UTC+00:00)

ARGOS - Pass Details

Date: 24 October 2020
Orbit: 820 x 835 km, 98.4° (Epoch: 23 November)

Event Time Altitude Azimuth Distance (km) Brightness Sun altitude
Exits shadow 18:09:08 21° 116° (ESE) 1,769 4.4 -16.2°
Maximum altitude 18:11:55 35° 67° (ENE) 1,316 3.7 -16.8°
Drops below altitude 10° 18:16:49 10° 3° (N) 2,456 5.6 -17.6°
Sets 18:19:21 0° 355° (N) 3,394 6.4 -18.1°
